Location: Rounton
(54.4000°N, 1.3500°W)
Time: 04:35:12
(UTC+00:00)

S-56A Canister/Altair - Pass Details

Date: 01 December 2021
Orbit: 633 x 2499 km, 38.9° (Epoch: 17 January)

Event Time Altitude Azimuth Distance (km) Brightness Sun altitude
Rises 04:55:30 0° 251° (WSW) 3,507 - -26.1°
Reaches altitude 10° 05:00:54 10° 210° (SSW) 2,213 - -25.3°
Maximum altitude 05:01:31 10° 202° (SSW) 2,169 - -25.2°
Drops below altitude 10° 05:02:06 10° 195° (SSW) 2,154 - -25.1°
Exits shadow 05:02:40 10° 188° (S) 2,168 9.8 -25.0°
Sets 05:06:43 0° 151° (SSE) 2,924 11.0 -24.5°
